Total_Precipitation_Accumulation
2.66 2.81 3.43 3.32 3.08 2.97 2.71 2.84 3.07 3.05 3.14 3.22 3.27 3.00 2.85 2.90 2.97 3.22 3.42 3.58 3.87 4.16 4.23 4.04 4.01 3.91 3.66 3.52 3.54 3.32 3.15 3.16 3.13 3.07 3.10 3.07 3.21 3.38 3.72 3.83 3.82 2.99 2.71
2.05 2.26 3.05 3.07 2.95 3.07 3.04 3.08 2.98 2.94 3.10 3.28 3.03 2.70 2.59 2.64 2.72 3.06 3.49 3.72 4.11 4.42 4.16 3.86 3.82 3.75 3.70 3.61 3.46 3.28 3.25 3.40 3.50 3.73 3.89 3.59 3.70 3.76 3.87 3.65 3.68 3.10 2.86
1.68 1.77 2.33 2.95 2.97 3.22 3.30 2.97 2.84 2.88 2.99 3.03 2.74 2.60 2.61 2.70 2.75 2.94 3.16 3.43 4.03 4.18 3.93 3.76 3.69 3.71 3.69 3.80 3.57 3.34 3.45 3.63 3.90 4.36 4.60 3.55 3.10 3.63 3.82 3.62 3.30 3.01 2.72
1.49 1.47 1.74 2.61 3.10 3.40 3.21 3.01 2.81 2.82 2.96 2.73 2.59 2.54 2.66 2.91 3.08 3.30 3.34 3.41 3.61 3.69 3.62 3.63 3.60 3.80 3.75 3.56 3.48 3.54 3.69 3.64 3.93 4.29 4.10 2.96 2.32 2.87 3.27 3.19 3.02 2.91 2.82
1.35 1.42 1.85 2.76 3.05 3.07 3.06 2.93 2.83 2.91 2.86 2.68 2.45 2.37 2.52 2.76 3.03 3.12 3.28 3.43 3.34 3.47 3.54 3.58 3.53 3.76 3.75 3.54 3.60 3.69 3.74 3.69 3.83 3.57 2.93 3.03 2.94 2.86 2.76 2.87 3.25 3.36 3.15
1.36 1.53 2.11 2.73 2.74 2.91 2.94 2.93 2.87 2.79 2.70 2.53 2.34 2.30 2.49 2.62 2.70 2.65 2.78 3.03 3.09 3.21 3.40 3.58 3.62 3.73 3.79 3.82 3.88 3.71 3.48 3.39 3.21 2.42 2.28 2.71 2.75 2.82 2.74 3.01 3.35 3.53 3.42
1.37 1.72 2.27 2.72 2.74 2.90 2.78 2.81 2.71 2.53 2.45 2.39 2.29 2.17 2.35 2.47 2.56 2.58 2.64 2.85 3.10 3.33 3.39 3.50 3.68 3.77 4.01 4.51 4.41 3.85 3.40 3.20 2.63 2.13 2.19 2.57 2.58 2.61 2.98 3.22 3.26 3.23 3.20
1.71 1.98 2.53 2.99 3.09 3.19 2.99 2.77 2.60 2.42 2.33 2.33 2.25 2.21 2.17 2.32 2.42 2.48 2.58 2.78 3.14 3.55 3.52 3.48 3.66 3.71 4.29 4.70 4.21 3.55 3.27 2.78 2.07 2.00 2.10 2.34 2.26 2.41 2.95 3.26 3.39 3.49 3.29
1.99 2.14 2.46 2.89 3.06 3.13 2.97 2.88 2.60 2.46 2.41 2.43 2.38 2.26 2.30 2.30 2.26 2.24 2.39 2.75 3.00 3.45 3.38 3.45 3.63 3.90 4.29 4.13 3.64 3.35 3.20 2.84 2.21 2.20 2.03 2.15 2.13 2.44 2.79 2.98 3.11 3.35 3.29
2.37 2.35 2.25 2.39 2.74 2.62 2.51 2.69 2.60 2.57 2.58 2.58 2.59 2.53 2.70 2.64 2.37 2.38 2.42 2.68 2.89 3.10 3.04 3.12 3.42 3.74 3.71 3.62 3.40 3.32 3.26 2.88 2.28 2.26 2.38 2.07 2.18 2.62 2.88 2.84 3.05 3.30 3.10
2.76 2.44 2.15 2.17 2.46 2.44 2.23 2.32 2.82 2.95 2.84 2.85 3.03 3.11 3.43 3.50 2.95 2.95 2.60 2.80 3.08 3.06 2.99 3.22 3.46 3.80 3.79 3.63 3.62 3.63 3.32 2.68 2.58 2.59 2.76 2.26 2.28 2.82 3.11 3.13 3.10 2.97 2.89
2.76 2.74 2.47 2.24 2.18 2.25 2.09 2.33 3.13 3.06 3.07 3.29 3.61 3.50 3.74 3.73 3.53 2.76 2.76 3.32 3.47 3.50 3.62 4.01 4.37 4.14 3.83 3.72 4.01 4.23 3.36 2.88 2.73 2.58 2.63 2.39 2.56 3.14 3.53 3.57 3.40 2.90 2.78
2.69 2.57 2.67 2.52 2.33 2.33 2.57 2.50 2.84 3.20 3.37 3.45 3.40 3.34 3.53 3.18 3.03 2.95 3.43 3.90 3.71 3.63 3.82 4.26 4.62 3.71 3.74 4.48 4.55 4.17 3.70 3.39 3.09 2.91 2.92 2.80 3.05 3.66 4.10 4.13 3.89 3.25 2.95
2.91 2.78 3.08 3.00 2.90 2.95 2.80 2.81 2.72 2.76 2.81 2.85 3.02 2.87 2.93 3.10 3.12 3.37 3.81 3.82 3.74 3.86 4.29 4.19 4.37 4.20 4.33 4.37 4.30 4.28 4.17 3.89 3.58 3.50 3.74 3.48 3.52 3.85 4.47 4.52 4.08 3.68 3.45
3.31 3.37 3.51 3.50 3.64 3.54 3.36 3.20 2.70 2.74 2.62 2.54 2.63 2.59 2.72 3.08 3.32 3.75 3.69 3.73 3.40 3.54 3.93 4.31 4.31 4.54 4.83 4.66 4.11 3.89 4.01 3.86 3.52 3.29 3.44 3.66 3.78 3.83 4.34 4.70 4.34 3.99 3.85
3.81 4.06 4.02 4.00 4.05 3.91 3.57 3.35 3.08 2.73 2.75 2.50 2.53 2.62 3.07 3.35 3.54 3.91 3.84 3.74 3.41 3.42 3.79 4.17 4.21 4.53 4.66 4.67 4.12 3.77 3.79 3.68 3.32 3.02 3.10 3.58 3.69 3.64 3.95 4.45 4.57 4.48 4.29
4.41 4.63 4.84 4.69 4.39 4.49 4.15 3.41 2.91 2.63 2.47 2.63 2.83 2.90 3.21 3.38 3.79 4.11 4.03 3.59 3.37 3.52 3.78 3.81 3.95 4.41 4.30 4.20 4.10 3.95 3.83 3.59 3.24 3.19 3.14 3.34 3.21 3.41 3.78 3.99 4.32 4.66 4.75
4.90 5.36 5.59 5.11 5.01 5.09 4.80 4.23 3.60 3.25 3.12 3.21 3.28 3.13 2.97 3.20 3.43 3.84 3.56 3.10 3.16 3.44 3.79 3.87 3.74 4.12 4.29 4.25 4.27 4.05 3.82 3.63 3.20 3.12 3.14 3.11 3.10 2.91 3.30 3.70 4.12 4.46 4.90
5.16 5.90 6.31 6.52 6.05 5.72 5.16 4.74 4.19 3.87 3.72 3.48 3.29 3.03 2.78 2.60 2.54 2.91 2.90 2.80 2.80 3.19 3.43 3.05 3.25 3.60 3.82 3.97 3.59 3.51 3.14 2.99 2.90 2.69 2.66 2.59 2.81 2.98 3.18 3.29 3.72 4.05 4.75
5.25 5.99 6.40 6.71 6.24 5.54 5.23 5.21 4.87 4.29 3.83 3.45 3.17 2.99 2.62 2.55 2.35 2.64 2.65 2.48 2.44 2.78 3.05 3.21 3.47 3.47 3.30 3.37 2.86 2.86 2.83 2.61 2.63 2.59 2.41 2.42 2.55 2.52 2.83 3.17 3.52 3.35 3.95
5.64 6.32 6.47 6.28 5.65 5.17 4.76 4.52 4.26 4.04 3.74 3.22 2.86 2.66 2.57 2.44 2.46 2.81 2.59 2.67 2.52 2.60 2.74 2.83 3.07 3.13 2.91 3.05 3.37 3.20 2.85 2.56 2.53 2.46 2.40 2.51 2.56 2.66 2.86 3.27 3.49 3.57 3.49
5.19 5.53 5.64 5.33 4.63 4.18 3.96 3.95 3.68 3.48 3.17 2.96 2.72 2.78 2.38 2.25 2.36 2.33 2.60 2.48 2.44 2.70 2.68 2.77 3.02 2.96 2.64 2.81 3.32 3.59 3.36 3.34 2.78 2.09 2.29 2.44 2.50 2.78 2.83 2.77 3.02 3.58 3.68
4.66 4.42 4.13 4.01 3.68 3.63 3.61 3.46 3.25 3.20 2.96 2.79 2.60 2.58 2.25 1.99 2.00 2.15 2.24 2.23 2.42 2.40 2.64 2.80 2.88 3.05 3.01 2.77 2.77 3.29 3.34 3.34 3.06 2.45 2.10 2.20 2.52 2.89 2.93 2.90 2.83 3.17 3.52
3.67 3.36 3.20 3.19 3.17 3.17 3.10 3.01 2.73 2.62 2.61 2.47 2.39 2.45 2.35 2.04 1.97 2.04 2.12 2.31 2.41 2.29 2.66 2.39 2.58 2.99 3.16 2.87 2.82 2.72 2.79 3.01 3.12 2.96 2.54 2.19 2.34 2.51 2.73 2.74 2.77 3.06 3.34
2.42 2.55 2.66 2.84 3.01 2.94 2.90 2.94 2.90 2.61 2.56 2.52 2.52 2.65 2.57 2.32 2.08 1.91 2.16 2.48 2.57 2.41 2.46 2.57 2.91 2.88 2.87 2.84 2.81 2.75 2.86 2.94 2.75 2.79 2.78 2.58 2.37 2.04 2.16 2.48 2.75 2.90 3.06
1.74 1.97 2.19 2.34 2.50 2.70 2.75 2.63 2.59 2.56 2.64 2.68 2.66 2.53 2.34 2.23 2.15 2.04 2.21 2.51 2.54 2.60 2.59 2.58 2.70 2.77 2.88 2.95 2.85 2.63 2.71 2.83 2.86 2.97 2.68 2.63 2.64 2.24 2.26 2.51 2.62 2.82 2.87